Temperature
21 20 20 19 19 19 21 22 22 22 22 22 21 21 20 19 19 19 19 19 19 19 19 19 19 19 19 19 19 19 19 19 19 19 19 19 18 18 18 18 18 18 18 18 18 18 18 18 18
21 20 20 20 19 20 21 22 22 22 22 22 22 21 20 19 19 19 19 19 19 19 19 19 19 19 19 19 19 19 19 19 19 19 19 19 19 19 19 18 18 18 18 18 18 18 18 18 18
20 20 20 19 20 20 22 22 22 23 23 22 21 20 20 19 19 19 19 19 19 19 19 19 19 19 19 19 19 19 19 19 19 19 19 19 19 19 19 18 18 18 18 18 18 18 18 18 18
21 20 20 20 21 22 22 23 23 23 23 22 21 20 19 19 20 20 19 19 19 19 19 19 19 19 19 19 19 19 19 19 19 19 19 19 19 19 18 18 18 18 18 18 18 18 18 18 18
21 20 20 20 22 23 23 23 23 22 22 21 21 19 19 19 20 20 20 19 19 19 19 19 19 19 19 19 19 19 19 19 19 18 18 18 18 18 18 18 18 18 18 18 18 18 18 18 18
21 20 20 21 22 23 23 23 23 22 22 21 20 19 19 19 20 20 20 19 19 19 19 19 19 19 19 19 19 19 19 18 18 18 18 18 18 18 18 18 18 18 18 18 18 18 18 18 18
21 20 21 22 22 23 24 24 23 22 22 21 21 19 19 19 20 20 20 19 19 19 19 19 19 19 19 19 19 19 19 18 18 18 18 18 18 18 18 18 18 18 18 18 18 18 18 18 18
22 20 22 22 23 24 24 24 23 23 22 22 21 19 19 19 19 19 19 19 19 19 19 19 19 19 19 19 19 19 19 18 18 18 18 18 18 18 18 18 18 18 18 18 18 18 18 18 18
23 21 22 23 23 24 24 23 23 23 22 22 21 21 21 20 19 19 19 19 19 19 19 19 19 19 19 19 19 19 18 18 18 19 19 18 18 18 18 18 18 18 18 18 18 18 18 18 18
23 21 23 24 24 24 24 24 23 23 22 21 21 21 21 20 20 19 19 19 19 19 19 19 19 19 19 19 19 19 19 18 19 19 19 19 18 18 18 18 18 18 18 18 18 18 18 18 18
22 22 24 24 25 25 24 24 24 23 22 21 21 21 20 20 20 20 20 20 20 20 19 19 19 19 19 19 19 19 19 19 19 19 19 19 18 18 18 18 18 18 18 18 18 18 18 18 18
23 24 25 25 26 25 24 24 23 23 23 23 23 22 21 20 20 20 20 20 20 20 20 19 19 19 19 19 19 19 19 19 19 19 19 18 18 18 18 18 18 18 18 18 18 18 18 18 18
24 25 26 26 26 25 25 24 23 23 24 23 22 21 21 21 21 21 20 20 20 20 20 19 19 19 19 19 19 19 19 19 19 19 19 19 18 18 18 18 18 18 18 18 18 18 18 18 18
25 25 25 25 25 25 24 24 23 23 23 22 22 21 21 21 21 21 20 20 20 20 20 20 20 19 19 19 19 19 19 19 19 19 19 19 18 18 18 18 18 18 18 18 18 18 18 18 18
26 25 25 25 25 25 25 23 23 23 23 22 21 21 21 21 21 21 21 21 21 20 20 20 20 20 19 19 19 19 19 19 19 19 19 19 18 18 18 18 18 18 18 18 18 18 18 18 18
25 24 24 25 25 25 25 23 23 23 22 21 21 21 21 21 22 22 22 21 21 21 20 20 20 20 19 19 19 19 19 19 19 19 18 18 18 18 18 18 18 18 18 18 18 18 18 18 18
24 24 24 25 25 25 24 23 23 22 22 21 21 21 21 21 22 22 22 22 21 21 21 20 20 20 19 19 19 19 19 19 19 18 18 18 18 18 18 18 18 18 18 18 18 18 18 18 18
24 24 24 24 25 24 23 23 22 22 22 22 22 22 22 22 22 22 22 22 21 21 21 20 20 20 20 19 19 19 19 19 19 18 18 18 18 18 18 18 18 18 18 18 18 18 18 18 18
25 24 24 24 25 24 23 23 22 22 22 22 22 22 22 22 23 22 22 22 21 21 21 21 20 20 20 19 19 19 19 19 19 18 18 18 18 18 18 18 18 18 18 18 18 18 18 18 18
24 24 24 24 25 24 23 23 23 22 22 22 22 22 22 23 23 22 22 22 22 21 21 21 20 20 20 20 19 19 19 19 19 18 18 18 18 18 18 18 18 18 18 18 18 18 18 18 18
24 24 24 24 24 23 23 23 22 22 23 23 23 23 23 23 23 23 22 22 22 22 21 21 21 20 20 20 19 19 19 19 18 18 18 18 18 18 18 18 18 18 18 18 18 18 18 18 18
24 25 25 24 23 21 23 22 22 22 22 22 22 22 23 23 23 23 23 22 22 22 22 21 21 20 20 20 19 19 19 19 19 18 18 18 18 18 18 18 18 18 18 18 18 18 18 18 17
24 24 24 23 22 21 21 21 21 21 21 21 21 22 23 23 23 23 23 23 23 22 22 21 21 20 20 20 19 19 19 19 19 18 18 18 18 18 18 18 18 18 18 18 17 17 17 17 17
24 23 22 20 20 21 21 21 21 20 21 21 22 22 23 23 23 23 23 23 23 22 22 21 21 21 20 20 20 19 19 19 19 18 18 18 18 18 18 18 17 17 17 17 17 17 17 17 17
23 22 21 21 20 20 20 21 21 22 21 21 22 22 23 23 23 23 23 23 22 22 22 21 21 21 20 20 20 20 19 19 19 19 18 18 18 18 18 17 17 17 17 17 17 17 17 17 17
23 22 21 22 21 20 20 20 21 22 22 22 22 22 23 23 23 23 23 23 23 22 22 22 21 21 21 20 20 20 19 19 19 19 18 18 18 18 17 17 17 17 17 17 17 17 17 17 17
23 21 21 19 20 20 20 20 21 21 21 21 22 22 22 22 23 23 23 23 23 22 22 22 22 21 21 20 20 20 19 19 19 18 18 18 18 18 17 17 17 17 17 17 17 17 17 17 17
22 20 18 19 20 21 21 21 20 21 21 21 21 21 22 22 22 22 23 23 23 22 22 22 22 21 21 20 20 20 19 19 19 18 18 18 18 17 17 17 17 17 17 17 17 17 17 17 17
22 20 18 17 18 20 20 21 21 20 20 20 20 21 22 22 22 22 22 22 22 22 22 22 21 21 20 20 20 20 19 19 19 18 18 18 18 17 17 17 17 17 17 17 17 17 17 16 16
22 21 18 20 19 17 19 20 22 20 20 20 20 21 22 22 22 22 22 22 22 22 22 21 21 21 21 20 20 20 19 19 18 18 18 18 17 17 17 17 17 17 17 16 16 16 16 16 16
Wind_Speed
10 7 3 1 2 4 3 3 1 2 3 3 5 5 5 3 1 1 1 5 6 6 7 9 10 12 12 13 13 12 13 14 14 14 14 14 13 13 12 12 11 11 11 10 10 9 10 10 9
7 4 1 1 4 3 3 3 2 2 3 4 5 5 5 4 3 4 3 4 7 6 7 9 11 12 12 12 12 11 12 14 14 14 13 13 12 12 11 11 11 11 10 9 9 8 9 9 8
6 3 1 3 3 2 1 1 2 4 4 3 4 5 4 2 3 3 4 7 7 6 6 9 12 12 13 12 12 11 12 13 13 13 12 12 11 11 10 9 10 10 9 9 8 8 8 8 7
3 1 2 4 3 1 2 2 3 4 4 5 5 5 4 3 3 5 8 9 7 5 6 9 13 13 13 12 11 11 11 11 12 11 11 10 10 10 9 9 9 8 8 8 7 7 7 6 6
1 2 4 4 2 2 1 1 2 3 3 4 5 5 4 4 7 10 9 8 7 4 4 8 12 12 12 11 11 10 10 10 10 10 9 9 8 8 8 8 8 7 7 6 6 6 6 5 5
2 3 4 2 2 2 1 2 3 5 5 4 5 4 4 3 7 8 8 7 6 5 5 7 11 12 11 10 10 10 9 9 9 9 8 8 7 7 7 7 7 7 6 5 5 5 5 4 4
3 3 2 0 1 1 1 2 3 5 5 3 4 5 3 3 5 7 7 6 5 5 5 5 7 8 9 9 9 9 8 8 8 7 7 7 6 6 6 6 6 6 5 5 4 4 4 3 3
3 3 2 1 1 1 2 3 3 4 4 5 4 6 5 5 7 8 7 6 5 4 4 4 5 5 5 6 7 8 7 7 7 6 6 5 4 4 4 4 4 4 4 4 4 3 3 2 2
3 3 1 3 4 2 3 3 2 3 5 3 3 4 7 12 11 9 7 5 4 3 2 3 3 4 4 4 5 5 5 5 4 4 4 3 2 2 2 3 3 3 3 3 3 2 2 1 1
3 2 5 4 5 4 3 4 5 4 4 3 6 8 12 12 11 10 8 7 5 4 3 2 3 3 3 3 3 2 2 2 2 1 1 2 1 1 1 2 2 2 2 2 2 1 1 1 1
4 4 3 2 3 5 5 3 3 7 3 5 10 14 14 12 10 9 8 7 6 5 3 3 3 3 2 2 2 2 1 1 1 1 1 1 1 0 1 0 1 1 0 0 0 1 1 1 0
3 4 2 1 3 5 6 5 4 4 4 7 13 16 14 13 11 10 9 7 5 5 4 3 4 3 2 2 1 2 1 1 0 0 1 1 0 0 0 0 1 0 0 1 0 0 1 0 1
2 2 1 1 3 4 7 5 4 2 5 11 13 13 13 12 10 9 8 7 6 6 5 5 4 4 3 2 1 1 1 1 1 0 1 2 1 1 0 0 0 0 0 1 1 1 1 0 1
2 1 2 3 4 3 6 3 4 3 9 12 13 12 11 12 11 9 8 8 8 8 7 5 5 5 4 3 2 1 1 1 1 1 2 3 3 1 0 0 1 1 1 2 2 2 1 1 1
1 4 5 3 3 2 6 2 2 6 10 11 12 11 10 9 9 10 10 9 9 8 7 6 6 5 5 4 3 2 1 1 1 2 2 3 3 2 1 1 1 2 1 1 1 1 1 1 0
3 4 2 3 1 3 5 3 3 8 11 10 10 10 10 9 9 9 9 8 8 7 7 6 6 6 5 4 2 2 1 1 1 1 1 2 2 2 1 1 1 1 1 1 1 1 1 0 0
4 1 2 3 1 3 3 4 4 8 10 10 10 10 10 9 8 8 9 9 8 8 7 7 5 6 6 4 3 2 1 1 1 1 1 2 2 2 2 1 1 1 1 1 1 1 1 1 1
3 2 3 4 2 2 2 4 4 9 10 10 10 9 9 10 11 9 9 8 8 7 7 7 5 5 5 3 2 1 1 1 1 1 2 2 2 2 2 1 0 1 1 0 1 1 1 1 1
3 3 4 5 2 3 4 5 5 9 9 9 9 9 10 11 9 7 8 8 8 7 7 7 6 5 5 3 2 2 1 1 1 1 1 2 2 2 2 1 0 0 1 1 1 1 1 1 1
3 2 4 3 1 2 2 4 3 7 11 11 12 12 12 9 6 7 8 8 9 9 8 8 7 7 6 4 3 2 2 1 1 0 0 1 2 2 2 1 1 1 1 1 1 2 1 0 1
3 5 5 4 2 3 2 4 3 4 5 8 9 9 10 12 11 10 10 10 10 10 10 10 8 7 6 5 3 3 2 2 1 1 0 1 1 2 2 2 1 1 1 1 1 2 3 2 1
4 6 5 3 2 2 2 3 7 4 5 7 9 9 10 10 11 10 11 10 11 10 9 8 8 7 6 6 5 5 3 3 2 2 1 1 0 1 2 2 1 1 1 1 1 1 2 3 1
5 1 2 3 4 2 1 2 7 2 5 8 9 11 11 11 12 12 12 12 10 9 8 8 7 7 6 6 6 5 4 3 2 1 1 0 0 0 1 2 1 1 1 1 1 1 2 2 2
4 6 7 6 5 0 3 4 7 4 7 6 7 9 10 11 12 11 10 9 8 8 8 7 8 6 6 6 6 6 6 4 3 2 1 1 0 1 1 1 1 1 1 1 1 2 2 2 2
5 6 4 4 3 5 2 4 8 7 6 7 7 7 8 9 10 10 10 10 9 9 9 8 8 7 6 6 6 6 6 6 5 4 3 2 1 1 2 2 2 1 1 1 1 2 1 2 3
4 8 7 5 5 5 1 5 7 5 5 4 4 4 5 7 9 11 11 11 11 11 10 10 9 7 7 6 6 5 5 4 4 4 3 3 3 2 2 2 2 1 1 1 1 1 2 1 2
6 4 6 7 2 1 5 6 8 3 3 2 3 4 5 6 7 9 9 9 10 11 10 11 10 8 7 7 6 5 5 5 4 3 3 2 2 2 1 1 1 1 1 1 1 1 2 2 2
6 8 6 6 5 4 5 5 5 6 5 3 3 5 5 4 4 5 7 9 9 9 9 9 9 9 7 7 6 6 5 5 4 3 3 2 2 2 1 1 1 1 1 1 1 1 2 1 2
4 5 6 5 5 6 4 7 5 7 6 6 5 4 4 5 6 6 6 7 8 7 8 8 8 7 7 7 6 5 5 5 4 4 4 3 3 3 3 2 2 1 1 1 1 1 1 1 2
5 7 8 6 5 5 4 7 4 5 5 5 4 3 3 4 5 5 6 7 7 8 7 8 7 7 7 7 6 6 5 5 5 5 4 4 3 3 3 3 2 2 1 1 1 2 1 2 2
Wind_Direction
150 145 152 132 44 43 1 335 17 52 55 64 85 86 94 81 101 137 104 128 127 133 142 144 140 134 130 128 127 128 131 132 132 133 133 134 135 135 134 135 136 134 132 129 125 123 128 127 126
145 157 198 49 67 42 338 334 52 55 131 125 84 75 69 59 52 100 117 125 124 132 137 143 140 136 133 131 130 129 133 133 133 135 136 138 139 139 138 141 141 139 136 134 132 130 131 131 131
160 193 55 56 76 136 272 306 106 90 93 85 73 60 66 67 96 121 133 127 117 123 136 149 142 139 136 133 131 129 133 135 135 136 136 137 139 141 143 144 143 143 143 143 142 138 137 137 136
159 80 49 59 47 255 202 219 132 110 65 51 81 66 58 57 111 122 124 122 119 118 142 153 144 142 138 136 133 132 133 137 137 136 136 139 141 143 143 142 141 143 147 148 144 138 136 139 143
97 74 52 32 4 340 107 169 121 94 79 64 78 80 47 25 89 113 122 120 122 114 130 150 144 141 138 137 136 134 137 140 138 138 140 142 144 146 147 146 145 146 149 150 144 140 136 137 139
65 63 65 20 344 354 79 127 98 90 93 88 81 80 51 74 104 119 121 117 114 109 106 129 137 138 138 139 139 138 137 141 141 138 140 146 148 150 149 151 151 150 150 149 148 146 147 146 139
99 79 87 208 318 336 147 103 107 112 106 103 107 92 83 107 116 115 108 103 99 99 98 108 126 133 137 140 142 143 143 143 142 142 142 144 145 147 147 149 150 153 155 155 155 152 148 150 157
145 92 52 302 199 225 136 96 107 115 111 119 113 128 158 168 127 107 96 93 96 93 95 103 111 113 117 132 143 148 150 148 147 147 147 144 144 143 146 148 152 157 160 161 162 163 166 167 173
123 70 237 219 190 197 145 117 127 90 110 109 99 132 147 135 125 115 108 102 113 125 101 108 106 108 115 133 152 153 152 148 147 145 150 143 124 133 150 166 172 177 181 180 181 180 177 163 146
112 139 233 222 186 162 160 144 148 111 109 90 84 96 122 133 138 142 149 154 162 166 161 139 131 127 130 144 127 123 125 112 100 98 95 97 103 160 156 173 182 201 205 205 197 207 163 71 57
163 202 240 243 181 142 142 136 130 131 163 175 154 145 144 146 152 159 165 170 179 176 171 160 156 148 143 129 116 115 114 98 87 117 146 91 55 11 21 348 304 334 254 222 190 357 63 61 354
185 254 223 226 147 137 148 138 125 160 198 160 152 151 153 160 168 175 178 180 174 177 189 179 168 159 162 152 132 131 134 127 159 260 158 141 158 33 44 349 327 345 132 126 116 136 87 51 258
215 289 320 145 109 131 124 128 139 160 126 130 138 148 161 169 176 181 181 178 175 185 195 189 176 170 164 150 167 152 166 177 193 201 156 166 193 212 198 332 354 285 180 171 164 184 180 223 257
249 22 30 57 86 107 119 109 111 156 134 137 149 163 174 179 179 177 180 184 185 191 195 187 181 178 169 165 166 180 194 194 181 212 210 200 201 198 192 290 285 271 237 203 193 209 205 225 225
29 48 26 36 94 134 112 68 201 158 144 150 164 174 182 188 183 187 188 186 186 188 187 183 181 174 174 177 177 173 195 195 210 230 216 204 202 195 185 219 269 267 245 204 186 189 164 199 197
46 54 21 299 114 121 125 219 218 157 155 167 177 182 187 197 199 198 190 185 183 179 179 185 185 172 176 178 174 178 195 187 214 225 211 212 213 196 176 209 259 261 187 164 166 156 147 121 166
37 47 265 288 215 132 140 221 203 165 166 181 189 191 193 199 207 206 195 187 183 181 177 180 181 171 175 173 170 173 180 182 207 205 204 228 224 186 171 215 258 213 149 172 190 138 159 168 212
242 249 263 257 246 136 191 236 202 178 181 192 195 195 198 204 212 203 193 187 180 176 174 177 177 171 162 150 138 131 123 180 193 201 211 219 218 190 164 190 239 162 130 87 182 169 146 177 195
187 211 254 266 235 161 215 235 219 190 192 199 199 199 205 213 211 192 184 178 171 171 174 178 176 174 158 150 154 159 186 197 188 204 196 197 197 179 167 194 217 163 156 185 179 155 114 50 91
185 235 268 293 7 152 224 267 243 199 203 203 202 203 206 206 192 184 180 179 181 180 182 183 183 177 172 172 166 164 155 164 166 73 85 190 196 192 187 180 186 176 153 113 125 137 137 129 122
223 206 229 223 18 50 76 328 281 246 214 212 211 205 203 199 194 192 189 190 186 188 190 193 188 180 176 165 139 116 84 61 64 72 138 243 207 199 184 168 156 148 155 180 191 173 166 179 177
251 229 203 176 119 323 79 279 285 257 239 223 219 209 207 202 193 193 192 190 193 196 191 186 181 178 173 163 159 158 166 180 199 193 206 257 198 178 179 165 155 145 156 183 215 183 178 157 176
215 241 129 128 130 61 32 172 285 291 248 242 227 216 211 200 194 194 195 193 191 187 183 180 173 175 172 167 167 165 167 176 168 150 160 223 348 166 192 175 165 161 172 197 200 158 169 166 173
152 71 59 53 72 291 231 179 272 244 229 242 226 217 210 199 195 194 192 184 179 173 175 173 172 181 175 170 170 170 171 170 160 163 182 237 287 272 245 196 185 196 192 207 210 194 185 186 173
92 94 40 1 1 251 220 193 248 256 242 228 223 213 201 191 189 186 183 181 179 176 176 173 172 180 179 174 175 179 180 178 182 186 195 201 218 238 248 226 210 211 216 214 194 190 215 206 191
168 143 158 197 226 270 282 230 255 269 270 238 211 195 180 183 186 187 189 185 183 182 177 172 175 177 173 175 182 180 176 180 190 190 189 196 208 224 230 213 208 210 210 221 193 203 226 214 216
140 160 162 138 150 269 275 281 299 287 290 250 195 174 184 190 187 188 184 179 178 179 178 174 172 174 176 181 181 180 180 182 190 183 180 191 205 208 194 196 201 215 207 220 208 225 236 221 226
140 142 103 127 157 240 281 274 256 267 261 244 213 199 194 173 166 172 175 177 176 177 175 169 170 178 182 181 185 188 187 187 183 168 178 191 198 189 173 196 196 208 203 210 206 240 248 228 251
119 111 114 123 153 167 238 266 232 225 224 219 224 211 181 168 166 167 170 170 165 164 166 168 172 172 178 185 184 186 186 185 178 183 190 188 184 181 186 192 191 201 216 243 222 244 238 233 267
158 161 149 159 202 176 185 260 275 221 213 203 219 208 179 167 162 159 155 150 156 163 167 171 173 177 184 183 180 183 184 181 187 197 198 186 186 191 195 191 185 204 228 237 230 248 253 238 257
Height
1497 1497 1498 1499 1501 1508 1509 1502 1496 1496 1496 1497 1497 1498 1499 1502 1505 1510 1506 1505 1507 1508 1510 1511 1513 1514 1515 1517 1518 1519 1520 1522 1524 1526 1528 1530 1531 1533 1535 1536 1538 1539 1540 1540 1541 1542 1543 1544 1545
1497 1498 1500 1500 1507 1518 1512 1500 1498 1496 1497 1497 1498 1499 1500 1502 1503 1504 1505 1507 1508 1510 1511 1513 1514 1516 1517 1519 1520 1521 1522 1524 1526 1528 1530 1532 1533 1535 1536 1538 1539 1540 1541 1542 1543 1543 1544 1546 1547
1498 1499 1501 1502 1509 1516 1510 1500 1498 1498 1498 1498 1500 1501 1503 1504 1504 1505 1506 1508 1509 1511 1513 1514 1516 1518 1519 1521 1522 1523 1524 1526 1528 1530 1532 1533 1535 1536 1538 1539 1540 1541 1542 1543 1544 1545 1546 1547 1548
1499 1501 1502 1506 1510 1506 1502 1499 1498 1498 1499 1500 1501 1504 1506 1507 1506 1507 1508 1510 1511 1513 1513 1514 1517 1519 1521 1523 1524 1525 1527 1528 1530 1532 1534 1535 1537 1538 1539 1540 1541 1542 1543 1544 1545 1546 1547 1548 1549
1500 1501 1506 1511 1508 1502 1499 1498 1498 1499 1500 1502 1502 1506 1508 1509 1509 1510 1511 1512 1513 1514 1513 1513 1518 1521 1523 1525 1527 1528 1528 1530 1532 1534 1535 1536 1538 1539 1540 1541 1542 1543 1544 1545 1546 1547 1548 1549 1550
1501 1502 1513 1517 1509 1501 1499 1498 1500 1501 1502 1504 1505 1507 1511 1512 1512 1513 1514 1515 1517 1517 1516 1516 1521 1524 1526 1528 1529 1530 1531 1533 1534 1535 1536 1538 1539 1540 1541 1543 1544 1544 1545 1546 1547 1548 1549 1550 1551
1503 1505 1512 1511 1509 1504 1500 1500 1501 1502 1504 1505 1506 1509 1512 1514 1515 1516 1517 1518 1520 1521 1521 1522 1525 1527 1528 1530 1532 1533 1534 1535 1536 1537 1539 1540 1541 1542 1542 1544 1544 1545 1546 1547 1548 1549 1550 1551 1551
1502 1505 1510 1511 1509 1505 1501 1501 1502 1503 1505 1507 1508 1509 1513 1515 1517 1518 1520 1521 1523 1524 1525 1526 1528 1530 1531 1532 1534 1535 1536 1537 1538 1539 1540 1541 1542 1543 1544 1545 1546 1547 1548 1548 1549 1550 1551 1551 1552
1502 1509 1513 1508 1505 1502 1500 1501 1503 1504 1505 1507 1508 1510 1512 1515 1518 1520 1522 1523 1525 1526 1528 1529 1531 1532 1533 1535 1536 1537 1538 1539 1540 1541 1542 1543 1544 1544 1545 1546 1547 1547 1548 1549 1550 1551 1552 1552 1553
1502 1511 1506 1499 1498 1498 1500 1501 1503 1505 1507 1508 1509 1511 1514 1516 1519 1521 1522 1524 1526 1528 1530 1531 1533 1534 1535 1537 1538 1539 1540 1541 1542 1543 1543 1544 1545 1545 1546 1547 1547 1548 1549 1550 1551 1551 1552 1553 1554
1500 1503 1497 1495 1495 1497 1500 1501 1503 1505 1508 1507 1508 1511 1514 1517 1519 1522 1524 1526 1527 1529 1531 1533 1534 1536 1537 1538 1540 1541 1542 1543 1543 1544 1545 1545 1546 1546 1547 1547 1548 1549 1549 1550 1551 1552 1553 1553 1554
1499 1496 1495 1495 1495 1497 1499 1501 1503 1505 1505 1506 1508 1511 1514 1517 1519 1522 1524 1526 1529 1530 1532 1534 1536 1537 1538 1540 1541 1542 1543 1544 1545 1545 1546 1546 1546 1547 1547 1547 1548 1549 1550 1550 1551 1552 1553 1553 1554
1498 1496 1495 1495 1495 1497 1499 1501 1503 1505 1506 1507 1510 1513 1515 1518 1520 1523 1525 1527 1529 1531 1533 1534 1536 1538 1539 1541 1542 1543 1544 1545 1545 1546 1546 1547 1547 1547 1547 1548 1548 1549 1550 1550 1551 1552 1552 1553 1554
1497 1496 1496 1496 1496 1499 1500 1503 1504 1506 1507 1509 1511 1514 1516 1518 1520 1523 1525 1527 1529 1531 1533 1535 1537 1538 1540 1541 1542 1543 1544 1545 1546 1546 1547 1547 1547 1547 1548 1548 1549 1549 1550 1550 1551 1551 1552 1552 1553
1496 1498 1498 1498 1498 1500 1502 1506 1504 1505 1507 1509 1512 1514 1517 1519 1521 1522 1524 1527 1529 1531 1533 1535 1537 1538 1540 1541 1542 1543 1544 1545 1546 1546 1547 1547 1547 1547 1548 1548 1549 1549 1549 1550 1550 1550 1551 1552 1552
1498 1504 1509 1501 1498 1500 1505 1513 1505 1505 1507 1510 1512 1514 1516 1519 1520 1522 1525 1527 1529 1531 1533 1535 1536 1538 1539 1541 1542 1543 1544 1545 1546 1546 1547 1547 1547 1548 1548 1548 1549 1549 1549 1549 1550 1550 1550 1551 1552
1508 1514 1512 1505 1499 1500 1504 1509 1504 1505 1507 1509 1512 1513 1515 1517 1520 1522 1524 1526 1528 1531 1533 1534 1536 1537 1539 1541 1542 1543 1544 1545 1546 1546 1546 1547 1547 1547 1548 1548 1548 1549 1549 1549 1549 1549 1550 1550 1551
1515 1513 1511 1508 1501 1501 1505 1505 1502 1504 1506 1508 1510 1512 1514 1516 1517 1520 1523 1526 1528 1530 1532 1534 1536 1537 1539 1540 1541 1542 1543 1544 1545 1546 1546 1547 1547 1547 1547 1548 1548 1548 1548 1548 1548 1549 1549 1549 1550
1504 1508 1511 1505 1498 1502 1505 1505 1503 1503 1505 1507 1508 1510 1512 1513 1516 1519 1522 1524 1527 1529 1531 1533 1534 1536 1538 1539 1540 1541 1542 1543 1544 1545 1546 1546 1547 1547 1547 1547 1547 1547 1547 1548 1548 1548 1548 1548 1549
1502 1508 1509 1504 1498 1502 1506 1505 1501 1501 1502 1502 1504 1506 1508 1511 1514 1517 1520 1522 1524 1527 1529 1531 1533 1535 1537 1538 1540 1541 1542 1543 1543 1544 1545 1545 1546 1546 1546 1546 1546 1547 1547 1547 1547 1547 1547 1547 1548
1502 1506 1506 1506 1502 1502 1506 1510 1504 1499 1499 1501 1502 1503 1505 1508 1511 1514 1516 1519 1522 1524 1527 1529 1531 1533 1535 1537 1539 1540 1541 1542 1543 1543 1544 1544 1545 1545 1545 1545 1546 1546 1546 1546 1546 1546 1546 1546 1547
1504 1495 1497 1501 1510 1518 1513 1527 1509 1501 1499 1498 1498 1500 1501 1504 1507 1510 1513 1516 1518 1522 1525 1527 1530 1532 1534 1536 1537 1538 1539 1540 1541 1542 1542 1543 1543 1544 1544 1544 1544 1544 1545 1545 1545 1544 1545 1545 1546
1495 1491 1495 1502 1511 1520 1517 1526 1516 1502 1502 1496 1495 1495 1497 1500 1503 1506 1509 1512 1516 1519 1522 1525 1528 1530 1532 1534 1535 1537 1538 1539 1540 1540 1541 1542 1542 1542 1542 1543 1543 1543 1543 1543 1543 1543 1543 1544 1544
1488 1495 1502 1511 1519 1530 1521 1526 1520 1505 1498 1492 1491 1491 1492 1496 1499 1502 1506 1510 1513 1517 1520 1523 1525 1528 1530 1532 1534 1535 1536 1537 1538 1538 1539 1540 1540 1540 1541 1541 1541 1541 1542 1542 1542 1541 1541 1542 1542
1492 1509 1528 1531 1539 1534 1519 1521 1515 1494 1489 1488 1487 1488 1489 1492 1495 1499 1502 1506 1509 1513 1516 1520 1522 1525 1527 1529 1531 1532 1534 1535 1535 1536 1537 1537 1538 1538 1539 1539 1539 1540 1540 1540 1540 1540 1540 1540 1540
1494 1503 1527 1538 1541 1532 1520 1521 1504 1489 1486 1485 1485 1486 1487 1489 1492 1495 1498 1502 1505 1509 1512 1516 1519 1522 1525 1527 1528 1530 1531 1532 1533 1534 1535 1535 1536 1536 1537 1537 1537 1538 1538 1538 1538 1538 1538 1538 1538
1495 1504 1503 1522 1528 1533 1526 1514 1497 1486 1485 1483 1483 1484 1485 1486 1489 1492 1495 1499 1502 1506 1509 1512 1516 1519 1522 1524 1526 1528 1529 1530 1531 1532 1532 1533 1534 1534 1535 1535 1535 1535 1536 1536 1536 1536 1535 1535 1535
1486 1496 1511 1522 1534 1537 1525 1517 1509 1492 1486 1483 1482 1482 1483 1485 1488 1490 1493 1496 1499 1503 1506 1510 1513 1516 1518 1521 1523 1525 1526 1527 1528 1529 1530 1531 1532 1532 1533 1533 1533 1533 1534 1534 1534 1533 1533 1533 1533
1491 1498 1507 1519 1521 1532 1534 1518 1489 1486 1483 1482 1480 1481 1482 1484 1486 1488 1491 1494 1497 1501 1504 1508 1511 1513 1516 1518 1520 1522 1523 1524 1526 1527 1528 1529 1529 1530 1530 1531 1531 1531 1531 1531 1531 1531 1531 1531 1531
1482 1490 1501 1513 1520 1524 1526 1513 1480 1479 1479 1480 1480 1481 1482 1483 1485 1487 1490 1492 1496 1499 1502 1505 1508 1510 1513 1515 1517 1518 1520 1522 1523 1524 1524 1526 1526 1527 1528 1528 1528 1529 1529 1529 1529 1529 1529 1528 1528